CW6490 Weather Reports


Display with metric or nautical units.
time (UTC)temp
F
wind
direction
speed
MPH
gust
MPH
rain 1hr
in
rain 24hr
in
rain mn
in
humidity
%
barometer
mb
20260506101813 60 241 0.0 1.0 0.00 0.00 0.00 48 1014.3
20260506100847 60 276 0.0 1.0 0.00 0.00 0.00 49 1014.3
20260506095819 60 276 0.0 0.0 0.00 0.00 0.00 48 1014.2
20260506094817 61 276 0.0 0.0 0.00 0.00 0.00 47 1014.2
20260506093829 61 276 0.0 1.0 0.00 0.00 0.00 46 1014.1
20260506092822 62 276 0.0 0.0 0.00 0.00 0.00 45 1014.0
20260506091813 62 276 0.0 1.0 0.00 0.00 0.00 43 1014.0
20260506090848 62 77 0.0 0.0 0.00 0.00 0.00 43 1014.0
20260506085824 63 76 0.0 0.0 0.00 0.00 0.00 42 1013.9
20260506084816 64 76 0.0 1.0 0.00 0.00 0.00 42 1013.9
20260506083827 64 77 0.0 1.0 0.00 0.00 0.00 41 1014.0
20260506082821 65 156 0.0 2.0 0.00 0.00 0.00 40 1013.9
20260506081835 65 210 0.0 1.0 0.00 0.00 0.00 39 1013.8
20260506080828 66 229 0.0 1.0 0.00 0.00 0.00 39 1013.8
20260506072827 66 234 0.0 3.0 0.00 0.00 0.00 37 1013.8
20260506071825 66 178 1.0 2.0 0.00 0.00 0.00 37 1013.7
20260506070817 66 235 0.0 1.0 0.00 0.00 0.00 37 1013.6
20260506061850 68 225 0.0 2.0 0.00 0.00 0.00 34 1013.3
20260506060823 68 239 0.0 2.0 0.00 0.00 0.00 34 1013.2
20260506050825 69 234 1.0 2.0 0.00 0.00 0.00 32 1012.9
20260506044831 70 221 1.0 3.0 0.00 0.00 0.00 32 1012.7
20260506043827 70 214 0.0 1.0 0.00 0.00 0.00 32 1012.7
20260506042822 70 216 0.0 3.0 0.00 0.00 0.00 31 1012.6
20260506041811 71 212 3.0 7.0 0.00 0.00 0.00 31 1012.5
20260506040823 71 235 2.0 8.0 0.00 0.00 0.00 31 1012.4
20260506035817 71 232 3.0 8.0 0.00 0.00 0.00 30 1012.2
20260506034835 71 244 4.0 11.0 0.00 0.00 0.00 29 1012.2
20260506033827 72 233 3.0 10.0 0.00 0.00 0.00 29 1012.1
20260506032820 72 224 4.0 10.0 0.00 0.00 0.00 28 1011.9
20260506031814 72 230 7.0 14.0 0.00 0.00 0.00 28 1011.7
20260506030846 72 238 2.0 9.0 0.00 0.00 0.00 27 1011.6
20260506025825 73 230 5.0 11.0 0.00 0.00 0.00 27 1011.5
20260506024820 73 261 5.0 10.0 0.00 0.00 0.00 27 1011.2
20260506023813 73 238 4.0 11.0 0.00 0.00 0.00 27 1011.1
20260506022827 73 224 4.0 10.0 0.00 0.00 0.00 27 1010.9
20260506021820 74 226 4.0 12.0 0.00 0.00 0.00 27 1010.8
20260506020838 74 222 7.0 11.0 0.00 0.00 0.00 27 1010.7
20260506015832 74 238 6.0 11.0 0.00 0.00 0.00 27 1010.5
20260506014825 75 222 7.0 12.0 0.00 0.00 0.00 27 1010.4
20260506013818 75 216 5.0 12.0 0.00 0.00 0.00 26 1010.4
20260506012811 76 211 5.0 15.0 0.00 0.00 0.00 25 1010.3
20260506011826 77 224 7.0 13.0 0.00 0.00 0.00 25 1010.3
20260506010825 77 196 4.0 8.0 0.00 0.00 0.00 27 1010.2
20260506005818 77 236 6.0 15.0 0.00 0.00 0.00 26 1010.1
20260506004852 77 231 6.0 15.0 0.00 0.00 0.00 25 1010.0
20260506003845 77 235 3.0 15.0 0.00 0.00 0.00 27 1009.9
20260506002839 77 237 6.0 12.0 0.00 0.00 0.00 27 1009.9
20260506001814 77 240 6.0 14.0 0.00 0.00 0.00 27 1009.9
20260506000848 77 243 10.0 16.0 0.00 0.00 0.00 27 1009.8
20260505235822 78 230 4.0 12.0 0.00 0.00 0.00 27 1009.8
20260505234835 77 218 5.0 14.0 0.00 0.00 0.00 26 1009.8
20260505233828 77 235 3.0 12.0 0.00 0.00 0.00 26 1009.8
20260505232820 78 230 4.0 16.0 0.00 0.00 0.00 25 1009.7
20260505231817 77 206 7.0 17.0 0.00 0.00 0.00 28 1009.6
20260505230829 77 255 7.0 17.0 0.00 0.00 0.00 26 1009.7
20260505225820 78 244 7.0 16.0 0.00 0.00 0.00 27 1009.6
20260505224813 78 235 6.0 20.0 0.00 0.00 0.00 27 1009.8
20260505223825 77 211 8.0 16.0 0.00 0.00 0.00 27 1009.9
20260505222823 77 196 9.0 20.0 0.00 0.00 0.00 27 1010.0
20260505221816 78 237 5.0 15.0 0.00 0.00 0.00 28 1010.0
20260505220849 77 197 8.0 15.0 0.00 0.00 0.00 27 1010.2
20260505215821 77 239 3.0 14.0 0.00 0.00 0.00 29 1010.3
20260505214816 78 235 8.0 17.0 0.00 0.00 0.00 27 1010.3
20260505213813 77 227 4.0 17.0 0.00 0.00 0.00 28 1010.4
20260505212846 78 205 5.0 12.0 0.00 0.00 0.00 29 1010.4
20260505211817 77 244 4.0 12.0 0.00 0.00 0.00 30 1010.6
20260505210830 77 243 7.0 16.0 0.00 0.00 0.00 30 1010.8
20260505205823 77 239 9.0 17.0 0.00 0.00 0.00 30 1010.6
20260505204815 78 191 6.0 18.0 0.00 0.00 0.00 31 1010.8
20260505203831 77 274 6.0 11.0 0.00 0.00 0.00 33 1010.8
20260505202822 77 249 9.0 16.0 0.00 0.00 0.00 33 1011.0
20260505201813 76 234 7.0 13.0 0.00 0.00 0.00 35 1011.0
20260505200822 75 224 3.0 12.0 0.00 0.00 0.00 37 1011.2
20260505195835 75 170 7.0 12.0 0.00 0.00 0.00 37 1011.2
20260505194845 76 216 7.0 15.0 0.00 0.00 0.00 38 1011.4
20260505193821 76 235 5.0 15.0 0.00 0.00 0.00 37 1011.3
20260505192816 76 233 6.0 15.0 0.00 0.00 0.00 38 1011.2
20260505191812 76 226 4.0 12.0 0.00 0.00 0.00 38 1011.4
20260505190829 75 178 3.0 8.0 0.00 0.00 0.00 39 1011.5
20260505185826 75 216 6.0 14.0 0.00 0.00 0.00 40 1011.7
20260505184825 74 224 6.0 11.0 0.00 0.00 0.00 41 1011.8
20260505183822 74 177 4.0 10.0 0.00 0.00 0.00 40 1011.8
20260505182819 74 173 5.0 12.0 0.00 0.00 0.00 42 1012.0
20260505181818 74 234 5.0 10.0 0.00 0.00 0.00 40 1012.1
20260505180818 73 213 4.0 10.0 0.00 0.00 0.00 44 1012.1
20260505175813 72 181 5.0 10.0 0.00 0.00 0.00 46 1012.0
20260505174829 71 208 1.0 11.0 0.00 0.00 0.00 47 1012.1
20260505173825 71 236 5.0 11.0 0.00 0.00 0.00 49 1012.1
20260505172820 71 223 4.0 9.0 0.00 0.00 0.00 48 1012.1
20260505171820 71 227 4.0 10.0 0.00 0.00 0.00 49 1012.1
20260505170817 72 242 3.0 10.0 0.00 0.00 0.00 49 1012.1
20260505165852 71 237 3.0 7.0 0.00 0.00 0.00 50 1012.1
20260505164826 71 214 4.0 8.0 0.00 0.00 0.00 52 1012.2
20260505163823 70 239 3.0 8.0 0.00 0.00 0.00 53 1012.2
20260505162823 70 215 4.0 10.0 0.00 0.00 0.00 53 1012.2
20260505161818 70 202 3.0 9.0 0.00 0.00 0.00 54 1012.2
20260505160813 68 163 3.0 8.0 0.00 0.00 0.00 56 1012.3
20260505152824 68 175 0.0 3.0 0.00 0.00 0.00 59 1011.9
20260505151820 68 220 1.0 7.0 0.00 0.00 0.00 60 1012.1
20260505150816 67 200 2.0 7.0 0.00 0.00 0.00 61 1012.1
20260505124829 65 161 0.0 1.0 0.00 0.00 0.00 70 1011.4
20260505123824 65 93 0.0 2.0 0.00 0.00 0.00 70 1011.3
20260505122841 65 82 0.0 4.0 0.00 0.00 0.00 70 1011.1
20260505121822 64 136 0.0 3.0 0.00 0.00 0.00 71 1011.1
20260505120816 64 69 0.0 2.0 0.00 0.00 0.00 71 1011.1
20260505115832 64 75 1.0 3.0 0.00 0.00 0.00 71 1011.0
20260505114829 65 79 1.0 3.0 0.00 0.00 0.00 70 1011.0
20260505113824 65 69 2.0 6.0 0.00 0.00 0.00 69 1011.0
20260505112825 65 94 2.0 4.0 0.00 0.00 0.00 66 1010.9
20260505111820 66 70 2.0 7.0 0.00 0.00 0.00 64 1010.9
20260505110815 66 54 1.0 5.0 0.00 0.00 0.00 63 1010.9